#timestamp,LO_Frequency,Hit,StdDev 
1504767615.7,286047003.9,P,1.4
1504767635.6,286047004.0,N,1.3
1504767655.4,286047004.1,P,1.2
1504767675.3,286047003.7,N,1.1
1504767695.1,286047003.4,N,1.0
1504767696.0,286047003.4,Y,0.0
1504767715.8,286046998.1,P,2.6
1504767735.7,286046998.6,N,2.4
1504767755.5,286046998.7,N,2.1
1504767775.4,286047001.1,N,2.0
1504767795.2,286046998.7,N,1.9
1504767815.0,286046999.2,N,1.8
1504767815.9,286046999.2,N,1.6
1504767835.8,286046998.7,N,1.6
1504767855.6,286046998.7,N,1.5
1504767875.5,286046999.4,N,1.4
1504767895.3,286046996.9,N,1.6
1504767915.1,286046997.0,N,1.6
1504767935.9,286046996.8,N,1.7
1504767955.7,286046996.8,N,1.7
1504767975.5,286046997.7,N,1.6
1504767995.4,286046996.8,N,1.7
1504768015.2,286046997.7,N,1.6
1504768035.1,286046997.5,N,1.6
1504768036.0,286046997.5,N,1.6
1504768055.8,286046998.0,N,1.5
1504768075.6,286046994.9,Y,0.0
1504768095.5,286046999.6,P,0.6
1504768115.3,286046997.4,P,0.9
1504768135.2,286046997.6,N,0.9
1504768155.9,286046995.2,Y,0.0
1504768175.7,286046997.1,P,0.6
1504768195.6,286046996.8,P,0.6
1504768215.4,286046997.1,P,0.6
1504768235.3,286046996.8,Y,0.0
1504768255.1,286046998.4,P,0.5
1504768256.0,286046998.4,N,0.5
1504768275.8,286046998.8,N,0.6
1504768295.7,286046999.0,N,0.6
1504768315.5,286046999.6,N,0.7
1504768335.4,286046999.3,N,0.7
1504768355.2,286046998.7,N,0.6
1504768375.0,286046996.6,Y,0.0
1504768375.9,286046996.6,P,1.0
1504768395.8,286046999.4,N,1.2
1504768415.6,286046999.2,N,1.1
1504768435.5,286046999.2,N,1.0
1504768455.3,286046999.5,N,1.0
1504768475.1,286046999.6,N,1.0
1504768495.9,286046996.7,Y,0.0
1504768515.7,286046998.4,P,0.2
1504768535.5,286046998.9,P,0.2
1504768555.4,286046996.5,P,1.0
1504768575.2,286046999.0,N,0.9
1504768595.1,286046999.6,N,1.0
1504768596.0,286046999.6,N,1.0
1504768615.8,286046997.0,Y,0.0
1504768635.6,286046999.4,P,0.4
1504768655.5,286046999.4,N,0.3
1504768675.3,286046999.2,N,0.3
1504768695.2,286046996.7,Y,0.0
1504768715.0,286046996.6,P,1.3
1504768715.9,286046996.6,N,1.2
1504768735.7,286046999.6,N,1.4
1504768755.6,286047001.1,N,1.8
1504768775.4,286047001.1,N,1.9
1504768795.3,286046998.4,N,1.7
1504768815.1,286046998.4,N,1.6
1504768816.0,286046998.4,N,1.5
1504768835.8,286046998.8,N,1.5
1504768855.7,286046999.4,N,1.4
1504768875.5,286046999.4,N,1.4
1504768895.4,286046999.6,N,1.3
1504768915.2,286046996.8,N,1.4
1504768935.0,286046996.6,N,1.4
1504768935.9,286046996.6,N,1.5
1504768955.8,286046996.7,N,1.5
1504768975.6,286046997.0,N,1.5
1504768995.5,286046999.6,N,1.5
1504769015.3,286046999.2,N,1.5
1504769035.1,286046996.5,N,1.5
1504769055.9,286046999.4,N,1.5
1504769075.7,286046997.4,N,1.4
1504769095.5,286046997.6,N,1.4
1504769115.4,286046997.2,N,1.4
1504769135.2,286046997.8,N,1.4
1504769155.1,286046997.5,N,1.4
1504769156.0,286046997.5,N,1.4
1504769175.8,286046997.2,N,1.3
1504769195.6,286046996.8,N,1.3
1504769215.5,286046997.8,N,1.3
1504769235.3,286046996.8,N,1.3
1504769255.2,286046997.0,N,1.3
1504769275.9,286046997.4,N,1.3
1504769295.7,286046997.4,N,1.2
1504769315.6,286046997.6,N,1.0
1504769335.4,286046997.3,N,1.0
1504769355.3,286046997.4,N,1.0
1504769375.1,286046997.2,N,1.0
1504769376.0,286046997.2,N,1.0
1504769395.8,286046997.6,N,0.9
1504769415.7,286046997.8,N,0.8
1504769435.5,286046997.4,Y,0.0
1504769455.4,286046998.1,P,0.3
1504769475.2,286046999.1,P,0.7
1504769495.0,286046997.0,P,0.8
1504769495.9,286046997.0,Y,0.0
1504769515.8,286047000.1,P,1.1
1504769535.6,286047002.1,N,1.7
1504769555.4,286047002.4,N,1.8
1504769575.3,286047002.2,N,1.7
1504769595.1,286046999.7,N,1.6
1504769615.9,286047000.1,N,1.5
1504769635.7,286047000.2,N,1.4
1504769655.5,286046999.7,N,1.4
1504769675.4,286047000.5,N,1.3
1504769695.2,286047001.2,N,1.3
1504769715.1,286046998.6,N,1.3
1504769716.0,286046998.6,N,1.4
1504769735.8,286047001.0,N,1.3
1504769755.6,286047001.1,N,1.3
1504769775.5,286046998.2,N,1.4
1504769795.3,286046998.2,N,1.4
1504769815.1,286046998.8,N,1.4
1504769835.9,286046999.1,N,1.4
1504769855.7,286046998.6,N,1.4
1504769875.6,286046998.1,N,1.4
1504769895.4,286046998.8,N,1.4
1504769915.2,286046997.1,N,1.5
1504769935.1,286046996.6,N,1.6
1504769936.0,286046996.6,N,1.6
1504769955.8,286046999.6,N,1.6
1504769975.7,286046997.2,N,1.6
1504769995.5,286046997.0,N,1.7
1504770015.3,286046996.9,N,1.7
1504770035.2,286046996.5,N,1.7
1504770055.0,286046999.3,N,1.7
1504770055.9,286046999.3,N,1.7
1504770075.8,286046996.6,N,1.7
1504770095.6,286046998.9,N,1.5
1504770115.4,286046998.9,N,1.4
1504770135.3,286046998.8,N,1.4
1504770155.1,286046998.5,N,1.4
1504770175.9,286046998.8,N,1.3
1504770195.7,286046998.6,N,1.3
1504770215.5,286046998.2,N,1.3
1504770235.4,286046998.4,N,1.2
1504770255.2,286047000.9,N,1.2
1504770275.0,286047000.7,N,1.3
1504770275.9,286047000.7,N,1.3
1504770295.8,286047000.6,N,1.3
1504770315.6,286047002.8,N,1.5
1504770335.5,286047000.4,N,1.5
1504770355.3,286047000.2,N,1.5
1504770375.1,286047000.1,N,1.5
1504770395.9,286047002.3,N,1.7
1504770415.7,286047002.7,N,1.8
1504770435.6,286047002.1,N,1.9
1504770455.4,286047002.5,N,1.9
1504770475.2,286047002.5,N,1.9
1504770495.1,286047002.1,N,1.9
1504770496.0,286047002.1,N,2.0
1504770515.8,286047001.5,N,1.9
1504770535.7,286047001.3,N,1.8
1504770555.5,286047001.4,N,1.8
1504770575.3,286047001.4,N,1.6
1504770595.2,286047003.6,N,1.7
1504770615.0,286047003.9,N,1.8
1504770615.9,286047003.9,N,1.7
1504770635.8,286047011.9,Y,0.0
1504770655.6,286047004.0,P,1.5
1504770675.5,286047001.5,N,1.3
1504770695.3,286047001.6,N,1.2
1504770715.1,286047001.4,N,1.1
1504770735.9,286047001.4,N,1.0
1504770755.7,286047003.9,Y,0.0
1504770775.6,286047001.6,P,0.1
1504770795.4,286046999.7,P,0.9
1504770815.2,286047001.6,N,0.9
1504770835.1,286047002.4,N,0.9
1504770836.0,286047002.4,N,0.9
1504770855.8,286046999.8,N,1.0
1504770875.6,286047000.2,N,1.0
1504770895.5,286047002.7,N,1.1
1504770915.3,286047002.5,N,1.1
1504770935.2,286047002.6,N,1.1
1504770955.9,286047002.1,N,1.1
1504770975.7,286047001.5,N,1.0
1504770995.6,286047001.9,N,1.0
1504771015.4,286047001.4,N,1.0
1504771035.3,286047002.2,N,0.9
1504771055.1,286047002.0,N,0.9
1504771056.0,286047002.0,N,0.9
1504771075.8,286047004.0,Y,0.0
1504771095.7,286046999.9,P,0.9
1504771115.5,286047000.3,N,0.8
1504771135.3,286047000.9,N,0.7
1504771155.2,286047000.0,N,0.7
1504771175.0,286046999.7,N,0.7
1504771175.9,286046999.7,N,0.7
1504771195.8,286047000.3,N,0.6
